Regional Weather Roundup
Issued by NWS

Home | Current Version | Previous Version | Graphics & Text | Print | Product List | Glossary On
Versions: 1 2 3 4 5 6 7 8 9 10 11 12 13 14 15 16 17 18 19 20 21 22 23 24 25 26 27 28 29 30 31 32 33 34 35 36 37 38 39 40 41 42 43 44 45 46 47 48 49 50
000
ASUS43 KDMX 201607
RWRIA

WEATHER ROUNDUP FOR IOWA
NATIONAL WEATHER SERVICE DES MOINES IA
1100 AM CDT SAT SEP 20 2014

NOTE: "FAIR" INDICATES FEW OR NO CLOUDS BELOW 12,000 FEET WITH NO
SIGNIFICANT WEATHER AND/OR OBSTRUCTIONS TO VISIBILITY.

* - THESE STATIONS ARE NOT NWS STATIONS...THUS NOT UNDER NWS
QUALITY CONTROL.  THEY ALSO DO NOT REPORT WEATHER SUCH
AS PRECIPITATION OR FOG.

IAZ001>003-012>014-020>022-031>034-043>046-201700-
   NORTHWEST IOWA

CITY           SKY/WX    TMP DP  RH WIND       PRES   REMARKS
CARROLL *      LGT RAIN  70  68  94 SW9       29.89F
CHEROKEE *     MOSUNNY   73  64  73 W7        29.90F
DENISON *      MOSUNNY   70  70 100 VRB7      29.88F FOG
LE MARS *      SUNNY     73  61  64 VRB5      29.93R
ORANGE CITY *  SUNNY     73  61  64 NW6       29.92S
SHELDON *      SUNNY     72  63  73 VRB5      29.90S
SIOUX CITY     MOSUNNY   71  62  73 CALM      29.93S
SPENCER        SUNNY     72  62  71 W9        29.90R
STORM LAKE *   SUNNY     72  68  88 W8        29.90F
$$

IAZ055>058-069>071-079>083-090>094-201700-
   SOUTHWEST IOWA

CITY           SKY/WX    TMP DP  RH WIND       PRES   REMARKS
ATLANTIC *     MOSUNNY   73  64  73 SW9       29.92S
AUDUBON *      SUNNY     75  64  69 W9        29.93F
CLARINDA *     PTSUNNY   68  68 100 CALM      29.93F
COUNCIL BLFS * SUNNY     73  70  88 SW14      29.93R
CRESTON *      MOSUNNY   72  68  88 SW10      29.93R
HARLAN  *      SUNNY     75  70  83 W8G14     29.95S
LAMONI         CLOUDY    69  67  93 SW17      29.91F FOG
RED OAK *      SUNNY     70  66  88 W8        29.93R
SHENANDOAH *   MOSUNNY   68  68 100 W6        29.93F
$$

IAZ047>049-059>061-072>074-084-201700-
   CENTRAL IOWA

CITY           SKY/WX    TMP DP  RH WIND       PRES   REMARKS
AMES           CLOUDY    73  67  81 W16G23    29.90R
ANKENY *       PTSUNNY   73  68  83 W13       29.89S
CHARITON *     MOSUNNY   72  68  88 SW10      29.90F FOG
DES MOINES     CLOUDY    75  67  76 W12       29.89F
GRINNELL*      PTSUNNY   73  68  83 W12G18    29.90R
KNOXVILLE *    PTSUNNY   73  68  83 W13       29.89S
MARSHALLTOWN   LGT RAIN  72  66  81 W12       29.88R
PELLA *        CLOUDY    73  70  88 W9        29.91S FOG
PERRY *        CLOUDY    73  64  73 W13G22    29.92S
$$

IAZ004>006-015-016-023>025-035-036-201700-
   NORTH CENTRAL IOWA

CITY           SKY/WX    TMP DP  RH WIND       PRES   REMARKS
ALGONA *       SUNNY     72  64  78 NW9       29.88S
CLARION *        N/A     68  68 100 W12       29.87R
ESTHERVILLE    SUNNY     71  61  70 W9        29.88S
FORT DODGE *   CLOUDY    72  66  83 W10       29.88S
MASON CITY     CLOUDY    68  65  90 W13       29.87R
FOREST CITY *  SUNNY     70  64  83 W9        29.86R
IOWA FALLS *   LGT RAIN  68  64  88 SW12      29.84F
$$

IAZ007>011-017>019-026>030-037>042-050>054-066-201700-
   NORTHEAST IOWA

CITY           SKY/WX    TMP DP  RH WIND       PRES   REMARKS
CEDAR RAPIDS   CLOUDY    71  67  87 SW9       29.87R
CHARLES CITY * SUNNY     64  61  88 SW12      29.86R
CLINTON *      PTSUNNY   73  64  73 W9G17     29.90R
DECORAH *      CLOUDY    64  63  94 VRB7G15   29.82F
DUBUQUE        PTSUNNY   73  64  73 SW17      29.86R
MONTICELLO *   MOSUNNY   73  66  78 SW12      29.87R
OELWEIN *      LGT RAIN  66  63  88 NW9G21    29.84F
WATERLOO       LGT RAIN  66  62  87 S6        29.84F
$$

IAZ064-065-067-068-078-201700-
   EAST CENTRAL IOWA

CITY           SKY/WX    TMP DP  RH WIND       PRES   REMARKS
DAVENPORT      CLOUDY    71  64  78 SW10      29.89R
IOWA CITY      CLOUDY    74  69  85 W8        29.88S
MT. PLEASANT * CLOUDY    75  66  73 SW12G21   29.89R
MUSCATINE *    MOSUNNY   73  66  78 W13       29.89R
QUAD CITIES    CLOUDY    71  64  78 SW13      29.87R
$$

IAZ062-063-075>077-085>089-095>099-201700-
   SOUTHEAST IOWA

CITY           SKY/WX    TMP DP  RH WIND       PRES   REMARKS
BURLINGTON     CLOUDY    73  67  81 SW16      29.86F
FAIRFIELD *    MOSUNNY   75  68  78 SW10      29.91R
FORT MADISON * SUNNY     75  66  73 S13G21    29.87F
KEOKUK *       SUNNY     72  68  88 S17G23    29.88F
OSKALOOSA *    PTSUNNY   73  68  83 SW14      29.90S
CENTERVILLE *  MOSUNNY   72  68  88 SW10G22   29.93S
OTTUMWA        CLOUDY    74  67  78 SW14      29.90R
WASHINGTON *   MOSUNNY   75  70  83 SW10G20   29.89R
$$

ABBREVIATIONS USED IN REMARKS
   TC - TEMPERATURES IN CELSIUS
  WCI - WIND CHILL INDEX
   HX - HEAT INDEX
  VSB - VISIBILITY
$$




USA.gov is the U.S. government's official web portal to all federal, state and local government web resources and services.